Year,Month,Day,Hour,Minute,Value (Times are PST for temperature in C)
2015,06,07,00,00,18.10
2015,06,07,00,01,18.20
2015,06,07,00,02,18.30
2015,06,07,00,03,18.40
2015,06,07,00,04,18.50
2015,06,07,00,05,18.60
2015,06,07,00,06,18.70
2015,06,07,00,07,18.80
2015,06,07,00,08,18.80
2015,06,07,00,09,18.80
2015,06,07,00,10,18.90
2015,06,07,00,11,18.90
2015,06,07,00,12,18.90
2015,06,07,00,13,19.00
2015,06,07,00,14,19.10
2015,06,07,00,15,19.20
2015,06,07,00,16,19.30
2015,06,07,00,17,19.40
2015,06,07,00,18,19.40
2015,06,07,00,19,19.50
2015,06,07,00,20,19.60
2015,06,07,00,21,19.70
2015,06,07,00,22,19.70
2015,06,07,00,23,19.70
2015,06,07,00,24,19.80
2015,06,07,00,25,19.80
2015,06,07,00,26,19.90
2015,06,07,00,27,19.90
2015,06,07,00,28,19.90
2015,06,07,00,29,19.90
2015,06,07,00,30,20.00
2015,06,07,00,31,20.00
2015,06,07,00,32,20.00
2015,06,07,00,33,20.10
2015,06,07,00,34,20.10
2015,06,07,00,35,20.10
2015,06,07,00,36,20.20
2015,06,07,00,37,20.20
2015,06,07,00,38,20.20
2015,06,07,00,39,20.30
2015,06,07,00,40,20.30
2015,06,07,00,41,20.30
2015,06,07,00,42,20.30
2015,06,07,00,43,20.40
2015,06,07,00,44,20.40
2015,06,07,00,45,20.40
2015,06,07,00,46,20.50
2015,06,07,00,47,20.50
2015,06,07,00,48,20.60
2015,06,07,00,49,20.60
2015,06,07,00,50,20.60
2015,06,07,00,51,20.60
2015,06,07,00,52,20.60
2015,06,07,00,53,20.60
2015,06,07,00,54,20.60
2015,06,07,00,55,20.60
2015,06,07,00,56,20.60
2015,06,07,00,57,20.60
2015,06,07,00,58,20.60
2015,06,07,00,59,20.60
2015,06,07,01,00,20.60
2015,06,07,01,01,20.60
2015,06,07,01,02,20.60
2015,06,07,01,03,20.60
2015,06,07,01,04,20.50
2015,06,07,01,05,20.50
2015,06,07,01,06,20.50
2015,06,07,01,07,20.40
2015,06,07,01,08,20.40
2015,06,07,01,09,20.40
2015,06,07,01,10,20.30
2015,06,07,01,11,20.30
2015,06,07,01,12,20.30
2015,06,07,01,13,20.20
2015,06,07,01,14,20.10
2015,06,07,01,15,20.10
2015,06,07,01,16,20.00
2015,06,07,01,17,20.00
2015,06,07,01,18,19.90
2015,06,07,01,19,19.80
2015,06,07,01,20,19.70
2015,06,07,01,21,19.60
2015,06,07,01,22,19.50
2015,06,07,01,23,19.40
2015,06,07,01,24,19.30
2015,06,07,01,25,19.30
2015,06,07,01,26,19.20
2015,06,07,01,27,19.20
2015,06,07,01,28,19.10
2015,06,07,01,29,19.10
2015,06,07,01,30,19.00
2015,06,07,01,31,19.00
2015,06,07,01,32,19.00
2015,06,07,01,33,18.90
2015,06,07,01,34,18.90
2015,06,07,01,35,18.90
2015,06,07,01,36,18.90
2015,06,07,01,37,18.80
2015,06,07,01,38,18.80
2015,06,07,01,39,18.80
2015,06,07,01,40,18.80
2015,06,07,01,41,18.80
2015,06,07,01,42,18.80
2015,06,07,01,43,18.80
2015,06,07,01,44,18.80
2015,06,07,01,45,18.80
2015,06,07,01,46,18.80
2015,06,07,01,47,18.80
2015,06,07,01,48,18.80
2015,06,07,01,49,18.80
2015,06,07,01,50,18.70
2015,06,07,01,51,18.70
2015,06,07,01,52,18.70
2015,06,07,01,53,18.60
2015,06,07,01,54,18.60
2015,06,07,01,55,18.60
2015,06,07,01,56,18.60
2015,06,07,01,57,18.60
2015,06,07,01,58,18.50
2015,06,07,01,59,18.50
2015,06,07,02,00,18.50
2015,06,07,02,01,18.50
2015,06,07,02,02,18.50
2015,06,07,02,03,18.50
2015,06,07,02,04,18.50
2015,06,07,02,05,18.50
2015,06,07,02,06,18.50
2015,06,07,02,07,18.50
2015,06,07,02,08,18.50
2015,06,07,02,09,18.50
2015,06,07,02,10,18.50
2015,06,07,02,11,18.50
2015,06,07,02,12,18.50
2015,06,07,02,13,18.40
2015,06,07,02,14,18.40
2015,06,07,02,15,18.40
2015,06,07,02,16,18.40
2015,06,07,02,17,18.40
2015,06,07,02,18,18.30
2015,06,07,02,19,18.30
2015,06,07,02,20,18.30
2015,06,07,02,21,18.20
2015,06,07,02,22,18.20
2015,06,07,02,23,18.20
2015,06,07,02,24,18.10
2015,06,07,02,25,18.10
2015,06,07,02,26,18.10
2015,06,07,02,27,18.10
2015,06,07,02,28,18.00
2015,06,07,02,29,18.00
2015,06,07,02,30,18.00
2015,06,07,02,31,17.90
2015,06,07,02,32,17.90
2015,06,07,02,33,17.90
2015,06,07,02,34,17.90
2015,06,07,02,35,17.90
2015,06,07,02,36,17.90
2015,06,07,02,37,17.90
2015,06,07,02,38,17.90
2015,06,07,02,39,17.90
2015,06,07,02,40,17.90
2015,06,07,02,41,18.00
2015,06,07,02,42,18.00
2015,06,07,02,43,18.00
2015,06,07,02,44,18.00
2015,06,07,02,45,18.10
2015,06,07,02,46,18.10
2015,06,07,02,47,18.10
2015,06,07,02,48,18.10
2015,06,07,02,49,18.20
2015,06,07,02,50,18.20
2015,06,07,02,51,18.20
2015,06,07,02,52,18.20
2015,06,07,02,53,18.20
2015,06,07,02,54,18.20
2015,06,07,02,55,18.20
2015,06,07,02,56,18.30
2015,06,07,02,57,18.30
2015,06,07,02,58,18.30
2015,06,07,02,59,18.30
2015,06,07,03,00,18.30
2015,06,07,03,01,18.30
2015,06,07,03,02,18.40
2015,06,07,03,03,18.40
2015,06,07,03,04,18.40
2015,06,07,03,05,18.40
2015,06,07,03,06,18.50
2015,06,07,03,07,18.50
2015,06,07,03,08,18.50
2015,06,07,03,09,18.50
2015,06,07,03,10,18.60
2015,06,07,03,11,18.50
2015,06,07,03,12,18.50
2015,06,07,03,13,18.50
2015,06,07,03,14,18.50
2015,06,07,03,15,18.50
2015,06,07,03,16,18.40
2015,06,07,03,17,18.40
2015,06,07,03,18,18.50
2015,06,07,03,19,18.50
2015,06,07,03,20,18.60
2015,06,07,03,21,18.60
2015,06,07,03,22,18.60
2015,06,07,03,23,18.60
2015,06,07,03,24,18.60
2015,06,07,03,25,18.60
2015,06,07,03,26,18.60
2015,06,07,03,27,18.60
2015,06,07,03,28,18.70
2015,06,07,03,29,18.70
2015,06,07,03,30,18.70
2015,06,07,03,31,18.80
2015,06,07,03,32,18.80
2015,06,07,03,33,18.90
2015,06,07,03,34,18.90
2015,06,07,03,35,18.90
2015,06,07,03,36,18.90
2015,06,07,03,37,18.90
2015,06,07,03,38,18.90
2015,06,07,03,39,18.90
2015,06,07,03,40,19.00
2015,06,07,03,41,19.00
2015,06,07,03,42,19.00
2015,06,07,03,43,19.00
2015,06,07,03,44,19.00
2015,06,07,03,45,19.10
2015,06,07,03,46,19.00
2015,06,07,03,47,19.00
2015,06,07,03,48,19.00
2015,06,07,03,49,19.00
2015,06,07,03,50,19.00
2015,06,07,03,51,19.00
2015,06,07,03,52,19.00
2015,06,07,03,53,19.00
2015,06,07,03,54,19.00
2015,06,07,03,55,19.00
2015,06,07,03,56,18.90
2015,06,07,03,57,18.90
2015,06,07,03,58,18.90
2015,06,07,03,59,18.90
2015,06,07,04,00,18.90
2015,06,07,04,01,18.90
2015,06,07,04,02,18.90
2015,06,07,04,03,18.90
2015,06,07,04,04,18.90
2015,06,07,04,05,18.90
2015,06,07,04,06,18.90
2015,06,07,04,07,18.90
2015,06,07,04,08,18.90
2015,06,07,04,09,18.80
2015,06,07,04,10,18.90
2015,06,07,04,11,18.90
2015,06,07,04,12,18.90
2015,06,07,04,13,18.90
2015,06,07,04,14,18.90
2015,06,07,04,15,18.90
2015,06,07,04,16,18.90
2015,06,07,04,17,18.90
2015,06,07,04,18,18.90
2015,06,07,04,19,18.90
2015,06,07,04,20,18.90
2015,06,07,04,21,18.90
2015,06,07,04,22,18.90
2015,06,07,04,23,18.90
2015,06,07,04,24,18.90
2015,06,07,04,25,18.90
2015,06,07,04,26,18.90
2015,06,07,04,27,19.00
2015,06,07,04,28,19.00
2015,06,07,04,29,19.10
2015,06,07,04,30,19.10
2015,06,07,04,31,19.10
2015,06,07,04,32,19.10
2015,06,07,04,33,19.10
2015,06,07,04,34,19.10
2015,06,07,04,35,19.20
2015,06,07,04,36,19.20
2015,06,07,04,37,19.20
2015,06,07,04,38,19.10
2015,06,07,04,39,19.10
2015,06,07,04,40,19.10
2015,06,07,04,41,19.10
2015,06,07,04,42,19.00
2015,06,07,04,43,19.00
2015,06,07,04,44,19.00
2015,06,07,04,45,18.90
2015,06,07,04,46,18.90
2015,06,07,04,47,18.90
2015,06,07,04,48,18.90
2015,06,07,04,49,18.90
2015,06,07,04,50,18.80
2015,06,07,04,51,18.80
2015,06,07,04,52,18.70
2015,06,07,04,53,18.70
2015,06,07,04,54,18.70
2015,06,07,04,55,18.60
2015,06,07,04,56,18.60
2015,06,07,04,57,18.50
2015,06,07,04,58,18.50
2015,06,07,04,59,18.40
2015,06,07,05,00,18.40
2015,06,07,05,01,18.30
2015,06,07,05,02,18.30
2015,06,07,05,03,18.30
2015,06,07,05,04,18.30
2015,06,07,05,05,18.20
2015,06,07,05,06,18.20
2015,06,07,05,07,18.20
2015,06,07,05,08,18.20
2015,06,07,05,09,18.20
2015,06,07,05,10,18.20
2015,06,07,05,11,18.20
2015,06,07,05,12,18.20
2015,06,07,05,13,18.20
2015,06,07,05,14,18.20
2015,06,07,05,15,18.20
2015,06,07,05,16,18.20
2015,06,07,05,17,18.20
2015,06,07,05,18,18.20
2015,06,07,05,19,18.30
2015,06,07,05,20,18.30
2015,06,07,05,21,18.40
2015,06,07,05,22,18.40
2015,06,07,05,23,18.40
2015,06,07,05,24,18.40
2015,06,07,05,25,18.40
2015,06,07,05,26,18.40
2015,06,07,05,27,18.40
2015,06,07,05,28,18.40
2015,06,07,05,29,18.40
2015,06,07,05,30,18.40
2015,06,07,05,31,18.40
2015,06,07,05,32,18.40
2015,06,07,05,33,18.40
2015,06,07,05,34,18.40
2015,06,07,05,35,18.40
2015,06,07,05,36,18.40
2015,06,07,05,37,18.40
2015,06,07,05,38,18.40
2015,06,07,05,39,18.40
2015,06,07,05,40,18.40
2015,06,07,05,41,18.40
2015,06,07,05,42,18.40
2015,06,07,05,43,18.40
2015,06,07,05,44,18.40
2015,06,07,05,45,18.40
2015,06,07,05,46,18.40
2015,06,07,05,47,18.40
2015,06,07,05,48,18.40
2015,06,07,05,49,18.40
2015,06,07,05,50,18.40
2015,06,07,05,51,18.40
2015,06,07,05,52,18.40
2015,06,07,05,53,18.40
2015,06,07,05,54,18.30
2015,06,07,05,55,18.30
2015,06,07,05,56,18.30
2015,06,07,05,57,18.30
2015,06,07,05,58,18.30
2015,06,07,05,59,18.30
2015,06,07,06,00,18.20
2015,06,07,06,01,18.20
2015,06,07,06,02,18.20
2015,06,07,06,03,18.20
2015,06,07,06,04,18.20
2015,06,07,06,05,18.20
2015,06,07,06,06,18.20
2015,06,07,06,07,18.20
2015,06,07,06,08,18.20
2015,06,07,06,09,18.20
2015,06,07,06,10,18.20
2015,06,07,06,11,18.20
2015,06,07,06,12,18.20
2015,06,07,06,13,18.20
2015,06,07,06,14,18.20
2015,06,07,06,15,18.20
2015,06,07,06,16,18.20
2015,06,07,06,17,18.20
2015,06,07,06,18,18.20
2015,06,07,06,19,18.20
2015,06,07,06,20,18.20
2015,06,07,06,21,18.20
2015,06,07,06,22,18.20
2015,06,07,06,23,18.20
2015,06,07,06,24,18.20
2015,06,07,06,25,18.20
2015,06,07,06,26,18.20
2015,06,07,06,27,18.20
2015,06,07,06,28,18.20
2015,06,07,06,29,18.20
2015,06,07,06,30,18.20
2015,06,07,06,31,18.20
2015,06,07,06,32,18.30
2015,06,07,06,33,18.30
2015,06,07,06,34,18.30
2015,06,07,06,35,18.30
2015,06,07,06,36,18.30
2015,06,07,06,37,18.30
2015,06,07,06,38,18.30
2015,06,07,06,39,18.30
2015,06,07,06,40,18.30
2015,06,07,06,41,18.30
2015,06,07,06,42,18.30
2015,06,07,06,43,18.40
2015,06,07,06,44,18.40
2015,06,07,06,45,18.40
2015,06,07,06,46,18.40
2015,06,07,06,47,18.40
2015,06,07,06,48,18.40
2015,06,07,06,49,18.40
2015,06,07,06,50,18.40
2015,06,07,06,51,18.40
2015,06,07,06,52,18.40
2015,06,07,06,53,18.50
2015,06,07,06,54,18.50
2015,06,07,06,55,18.60
2015,06,07,06,56,18.60
2015,06,07,06,57,18.60
2015,06,07,06,58,18.60
2015,06,07,06,59,18.60
2015,06,07,07,00,18.60
2015,06,07,07,01,18.60
2015,06,07,07,02,18.60
2015,06,07,07,03,18.70
2015,06,07,07,04,18.70
2015,06,07,07,05,18.70
2015,06,07,07,06,18.70
2015,06,07,07,07,18.70
2015,06,07,07,08,18.70
2015,06,07,07,09,18.70
2015,06,07,07,10,18.70
2015,06,07,07,11,18.80
2015,06,07,07,12,18.80
2015,06,07,07,13,18.80
2015,06,07,07,14,18.80
2015,06,07,07,15,18.80
2015,06,07,07,16,18.80
2015,06,07,07,17,18.80
2015,06,07,07,18,18.80
2015,06,07,07,19,18.90
2015,06,07,07,20,18.90
2015,06,07,07,21,18.90
2015,06,07,07,22,18.90
2015,06,07,07,23,18.90
2015,06,07,07,24,18.90
2015,06,07,07,25,19.00
2015,06,07,07,26,19.00
2015,06,07,07,27,19.00
2015,06,07,07,28,19.10
2015,06,07,07,29,19.10
2015,06,07,07,30,19.10
2015,06,07,07,31,19.20
2015,06,07,07,32,19.20
2015,06,07,07,33,19.20
2015,06,07,07,34,19.20
2015,06,07,07,35,19.20
2015,06,07,07,36,19.20
2015,06,07,07,37,19.20
2015,06,07,07,38,19.20
2015,06,07,07,39,19.20
2015,06,07,07,40,19.30
2015,06,07,07,41,19.30
2015,06,07,07,42,19.30
2015,06,07,07,43,19.30
2015,06,07,07,44,19.30
2015,06,07,07,45,19.40
2015,06,07,07,46,19.40
2015,06,07,07,47,19.40
2015,06,07,07,48,19.40
2015,06,07,07,49,19.40
2015,06,07,07,50,19.50
2015,06,07,07,51,19.50
2015,06,07,07,52,19.50
2015,06,07,07,53,19.60
2015,06,07,07,54,19.60
2015,06,07,07,55,19.60
2015,06,07,07,56,19.60
2015,06,07,07,57,19.70
2015,06,07,07,58,19.70
2015,06,07,07,59,19.70
2015,06,07,08,00,19.70
2015,06,07,08,01,19.60
2015,06,07,08,02,19.60
2015,06,07,08,03,19.60
2015,06,07,08,04,19.50
2015,06,07,08,05,19.50
2015,06,07,08,06,19.50
2015,06,07,08,07,19.50
2015,06,07,08,08,19.50
2015,06,07,08,09,19.60
2015,06,07,08,10,19.60
2015,06,07,08,11,19.60
2015,06,07,08,12,19.60
2015,06,07,08,13,19.60
2015,06,07,08,14,19.60
2015,06,07,08,15,19.70
2015,06,07,08,16,19.70
2015,06,07,08,17,19.60
2015,06,07,08,18,19.70
2015,06,07,08,19,19.70
2015,06,07,08,20,19.70
2015,06,07,08,21,19.70
2015,06,07,08,22,19.80
2015,06,07,08,23,19.80
2015,06,07,08,24,19.80
2015,06,07,08,25,19.80
2015,06,07,08,26,19.80
2015,06,07,08,27,19.90
2015,06,07,08,28,19.90
2015,06,07,08,29,19.90
2015,06,07,08,30,19.90
2015,06,07,08,31,19.90
2015,06,07,08,32,19.90
2015,06,07,08,33,19.90
2015,06,07,08,34,19.90
2015,06,07,08,35,19.90
2015,06,07,08,36,19.90
2015,06,07,08,37,19.90
2015,06,07,08,38,19.90
2015,06,07,08,39,19.90
2015,06,07,08,40,20.00
2015,06,07,08,41,20.00
2015,06,07,08,42,20.00
2015,06,07,08,43,20.00
2015,06,07,08,44,20.00
2015,06,07,08,45,20.10
2015,06,07,08,46,20.10
2015,06,07,08,47,20.20
2015,06,07,08,48,20.20
2015,06,07,08,49,20.20
2015,06,07,08,50,20.20
2015,06,07,08,51,20.20
2015,06,07,08,52,20.20
2015,06,07,08,53,20.20
2015,06,07,08,54,20.20
2015,06,07,08,55,20.20
2015,06,07,08,56,20.20
2015,06,07,08,57,20.20
2015,06,07,08,58,20.30
2015,06,07,08,59,20.30
2015,06,07,09,00,20.30
2015,06,07,09,01,20.30
2015,06,07,09,02,20.30
2015,06,07,09,03,20.30
2015,06,07,09,04,20.30
2015,06,07,09,05,20.40
2015,06,07,09,06,20.40
2015,06,07,09,07,20.40
2015,06,07,09,08,20.50
2015,06,07,09,09,20.50
2015,06,07,09,10,20.50
2015,06,07,09,11,20.60
2015,06,07,09,12,20.60
2015,06,07,09,13,20.60
2015,06,07,09,14,20.60
2015,06,07,09,15,20.60
2015,06,07,09,16,20.60
2015,06,07,09,17,20.70
2015,06,07,09,18,20.70
2015,06,07,09,19,20.70
2015,06,07,09,20,20.80
2015,06,07,09,21,20.80
2015,06,07,09,22,20.80
2015,06,07,09,23,20.80
2015,06,07,09,24,20.80
2015,06,07,09,25,20.70
2015,06,07,09,26,20.60
2015,06,07,09,27,20.60
2015,06,07,09,28,20.50
2015,06,07,09,29,20.50
2015,06,07,09,30,20.50
2015,06,07,09,31,20.50
2015,06,07,09,32,20.60
2015,06,07,09,33,20.60
2015,06,07,09,34,20.50
2015,06,07,09,35,20.40
2015,06,07,09,36,20.40
2015,06,07,09,37,20.40
2015,06,07,09,38,20.40
2015,06,07,09,39,20.40
2015,06,07,09,40,20.40
2015,06,07,09,41,20.40
2015,06,07,09,42,20.50
2015,06,07,09,43,20.60
2015,06,07,09,44,20.60
2015,06,07,09,45,20.60
2015,06,07,09,46,20.60
2015,06,07,09,47,20.50
2015,06,07,09,48,20.50
2015,06,07,09,49,20.50
2015,06,07,09,50,20.40
2015,06,07,09,51,20.40
2015,06,07,09,52,20.40
2015,06,07,09,53,20.40
2015,06,07,09,54,20.50
2015,06,07,09,55,20.60
2015,06,07,09,56,20.70
2015,06,07,09,57,20.70
2015,06,07,09,58,20.80
2015,06,07,09,59,20.90
2015,06,07,10,00,20.90
2015,06,07,10,01,21.00
2015,06,07,10,02,21.10
2015,06,07,10,03,21.20
2015,06,07,10,04,21.30
2015,06,07,10,05,21.30
2015,06,07,10,06,21.40
2015,06,07,10,07,21.40
2015,06,07,10,08,21.40
2015,06,07,10,09,21.50
2015,06,07,10,10,21.60
2015,06,07,10,11,21.60
2015,06,07,10,12,21.50
2015,06,07,10,13,21.50
2015,06,07,10,14,21.50
2015,06,07,10,15,21.50
2015,06,07,10,16,21.40
2015,06,07,10,17,21.40
2015,06,07,10,18,21.30
2015,06,07,10,19,21.30
2015,06,07,10,20,21.20
2015,06,07,10,21,21.20
2015,06,07,10,22,21.20
2015,06,07,10,23,21.30
2015,06,07,10,24,21.40
2015,06,07,10,25,21.40
2015,06,07,10,26,21.40
2015,06,07,10,27,21.50
2015,06,07,10,28,21.50
2015,06,07,10,29,21.60
2015,06,07,10,30,21.60
2015,06,07,10,31,21.70
2015,06,07,10,32,21.70
2015,06,07,10,33,21.70
2015,06,07,10,34,21.80
2015,06,07,10,35,21.80
2015,06,07,10,36,21.90
2015,06,07,10,37,21.90
2015,06,07,10,38,22.00
2015,06,07,10,39,22.10
2015,06,07,10,40,22.10
2015,06,07,10,41,22.10
2015,06,07,10,42,22.10
2015,06,07,10,43,22.20
2015,06,07,10,44,22.20
2015,06,07,10,45,22.20
2015,06,07,10,46,22.10
2015,06,07,10,47,22.00
2015,06,07,10,48,21.90
2015,06,07,10,49,21.90
2015,06,07,10,50,21.90
2015,06,07,10,51,21.90
2015,06,07,10,52,21.90
2015,06,07,10,53,21.90
2015,06,07,10,54,21.90
2015,06,07,10,55,21.90
2015,06,07,10,56,21.90
2015,06,07,10,57,22.00
2015,06,07,10,58,22.00
2015,06,07,10,59,22.10
2015,06,07,11,00,22.20
2015,06,07,11,01,22.20
2015,06,07,11,02,22.30
2015,06,07,11,03,22.30
2015,06,07,11,04,22.30
2015,06,07,11,05,22.30
2015,06,07,11,06,22.40
2015,06,07,11,07,22.40
2015,06,07,11,08,22.50
2015,06,07,11,09,22.50
2015,06,07,11,10,22.60
2015,06,07,11,11,22.60
2015,06,07,11,12,22.60
2015,06,07,11,13,22.60
2015,06,07,11,14,22.60
2015,06,07,11,15,22.60
2015,06,07,11,16,22.50
2015,06,07,11,17,22.60
2015,06,07,11,18,22.60
2015,06,07,11,19,22.60
2015,06,07,11,20,22.60
2015,06,07,11,21,22.60
2015,06,07,11,22,22.70
2015,06,07,11,23,22.80
2015,06,07,11,24,22.80
2015,06,07,11,25,22.90
2015,06,07,11,26,22.90
2015,06,07,11,27,22.90
2015,06,07,11,28,22.90
2015,06,07,11,29,22.90
2015,06,07,11,30,22.80
2015,06,07,11,31,22.80
2015,06,07,11,32,22.80
2015,06,07,11,33,22.80
2015,06,07,11,34,22.80
2015,06,07,11,35,22.90
2015,06,07,11,36,22.90
2015,06,07,11,37,22.90
2015,06,07,11,38,22.90
2015,06,07,11,39,22.90
2015,06,07,11,40,22.80
2015,06,07,11,41,22.80
2015,06,07,11,42,22.70
2015,06,07,11,43,22.70
2015,06,07,11,44,22.60
2015,06,07,11,45,22.60
2015,06,07,11,46,22.60
2015,06,07,11,47,22.60
2015,06,07,11,48,22.60
2015,06,07,11,49,22.60
2015,06,07,11,50,22.60
2015,06,07,11,51,22.70
2015,06,07,11,52,22.80
2015,06,07,11,53,22.80
2015,06,07,11,54,22.80
2015,06,07,11,55,22.90
2015,06,07,11,56,23.00
2015,06,07,11,57,23.00
2015,06,07,11,58,23.10
2015,06,07,11,59,23.10
2015,06,07,12,00,23.10
2015,06,07,12,01,23.20
2015,06,07,12,02,23.30
2015,06,07,12,03,23.30
2015,06,07,12,04,23.40
2015,06,07,12,05,23.40
2015,06,07,12,06,23.50
2015,06,07,12,07,23.60
2015,06,07,12,08,23.60
2015,06,07,12,09,23.60
2015,06,07,12,10,23.50
2015,06,07,12,11,23.50
2015,06,07,12,12,23.30
2015,06,07,12,13,23.30
2015,06,07,12,14,23.30
2015,06,07,12,15,23.30
2015,06,07,12,16,23.40
2015,06,07,12,17,23.50
2015,06,07,12,18,23.60
2015,06,07,12,19,23.60
2015,06,07,12,20,23.60
2015,06,07,12,21,23.70
2015,06,07,12,22,23.60
2015,06,07,12,23,23.70
2015,06,07,12,24,23.70
2015,06,07,12,25,23.80
2015,06,07,12,26,23.80
2015,06,07,12,27,23.70
2015,06,07,12,28,23.60
2015,06,07,12,29,23.50
2015,06,07,12,30,23.40
2015,06,07,12,31,23.40
2015,06,07,12,32,23.40
2015,06,07,12,33,23.50
2015,06,07,12,34,23.60
2015,06,07,12,35,23.60
2015,06,07,12,36,23.60
2015,06,07,12,37,23.70
2015,06,07,12,38,23.80
2015,06,07,12,39,23.80
2015,06,07,12,40,23.80
2015,06,07,12,41,23.80
2015,06,07,12,42,23.70
2015,06,07,12,43,23.70
2015,06,07,12,44,23.70
2015,06,07,12,45,23.70
2015,06,07,12,46,23.70
2015,06,07,12,47,23.70
2015,06,07,12,48,23.70
2015,06,07,12,49,23.70
2015,06,07,12,50,23.60
2015,06,07,12,51,23.70
2015,06,07,12,52,23.60
2015,06,07,12,53,23.60
2015,06,07,12,54,23.50
2015,06,07,12,55,23.40
2015,06,07,12,56,23.40
2015,06,07,12,57,23.40
2015,06,07,12,58,23.40
2015,06,07,12,59,23.40
2015,06,07,13,00,23.50
2015,06,07,13,01,23.40
2015,06,07,13,02,23.40
2015,06,07,13,03,23.40
2015,06,07,13,04,23.40
2015,06,07,13,05,23.50
2015,06,07,13,06,23.60
2015,06,07,13,07,23.70
2015,06,07,13,08,23.70
2015,06,07,13,09,23.80
2015,06,07,13,10,23.90
2015,06,07,13,11,23.90
2015,06,07,13,12,24.00
2015,06,07,13,13,24.00
2015,06,07,13,14,24.00
2015,06,07,13,15,24.10
2015,06,07,13,16,24.10
2015,06,07,13,17,24.20
2015,06,07,13,18,24.30
2015,06,07,13,19,24.30
2015,06,07,13,20,24.40
2015,06,07,13,21,24.40
2015,06,07,13,22,24.40
2015,06,07,13,23,24.40
2015,06,07,13,24,24.40
2015,06,07,13,25,24.40
2015,06,07,13,26,24.30
2015,06,07,13,27,24.30
2015,06,07,13,28,24.40
2015,06,07,13,29,24.30
2015,06,07,13,30,24.30
2015,06,07,13,31,24.40
2015,06,07,13,32,24.50
2015,06,07,13,33,24.60
2015,06,07,13,34,24.60
2015,06,07,13,35,24.70
2015,06,07,13,36,24.70
2015,06,07,13,37,24.60
2015,06,07,13,38,24.60
2015,06,07,13,39,24.60
2015,06,07,13,40,24.50
2015,06,07,13,41,24.50
2015,06,07,13,42,24.50
2015,06,07,13,43,24.40
2015,06,07,13,44,24.40
2015,06,07,13,45,24.40
2015,06,07,13,46,24.30
2015,06,07,13,47,24.30
2015,06,07,13,48,24.30
2015,06,07,13,49,24.40
2015,06,07,13,50,24.40
2015,06,07,13,51,24.50
2015,06,07,13,52,24.60
2015,06,07,13,53,24.70
2015,06,07,13,54,24.90
2015,06,07,13,55,25.00
2015,06,07,13,56,25.10
2015,06,07,13,57,25.20
2015,06,07,13,58,25.30
2015,06,07,13,59,25.40
2015,06,07,14,00,25.50
2015,06,07,14,01,25.60
2015,06,07,14,02,25.70
2015,06,07,14,03,25.80
2015,06,07,14,04,25.90
2015,06,07,14,05,25.90
2015,06,07,14,06,25.80
2015,06,07,14,07,25.70
2015,06,07,14,08,25.60
2015,06,07,14,09,25.50
2015,06,07,14,10,25.40
2015,06,07,14,11,25.50
2015,06,07,14,12,25.60
2015,06,07,14,13,25.60
2015,06,07,14,14,25.60
2015,06,07,14,15,25.60
2015,06,07,14,16,25.70
2015,06,07,14,17,25.80
2015,06,07,14,18,25.80
2015,06,07,14,19,25.90
2015,06,07,14,20,25.90
2015,06,07,14,21,26.10
2015,06,07,14,22,26.30
2015,06,07,14,23,26.40
2015,06,07,14,24,26.50
2015,06,07,14,25,26.70
2015,06,07,14,26,26.70
2015,06,07,14,27,26.70
2015,06,07,14,28,26.70
2015,06,07,14,29,26.70
2015,06,07,14,30,26.70
2015,06,07,14,31,26.60
2015,06,07,14,32,26.50
2015,06,07,14,33,26.50
2015,06,07,14,34,26.60
2015,06,07,14,35,26.60
2015,06,07,14,36,26.60
2015,06,07,14,37,26.50
2015,06,07,14,38,26.40
2015,06,07,14,39,26.30
2015,06,07,14,40,26.30
2015,06,07,14,41,26.20
2015,06,07,14,42,26.10
2015,06,07,14,43,25.90
2015,06,07,14,44,25.80
2015,06,07,14,45,25.50
2015,06,07,14,46,25.30
2015,06,07,14,47,25.20
2015,06,07,14,48,25.00
2015,06,07,14,49,24.90
2015,06,07,14,50,24.80
2015,06,07,14,51,24.70
2015,06,07,14,52,24.70
2015,06,07,14,53,24.60
2015,06,07,14,54,24.60
2015,06,07,14,55,24.60
2015,06,07,14,56,24.60
2015,06,07,14,57,24.60
2015,06,07,14,58,24.60
2015,06,07,14,59,24.60
2015,06,07,15,00,24.60
2015,06,07,15,01,24.60
2015,06,07,15,02,24.60
2015,06,07,15,03,24.60
2015,06,07,15,04,24.60
2015,06,07,15,05,24.60
2015,06,07,15,06,24.60
2015,06,07,15,07,24.60
2015,06,07,15,08,24.70
2015,06,07,15,09,24.80
2015,06,07,15,10,24.70
2015,06,07,15,11,24.70
2015,06,07,15,12,24.60
2015,06,07,15,13,24.60
2015,06,07,15,14,24.50
2015,06,07,15,15,24.50
2015,06,07,15,16,24.40
2015,06,07,15,17,24.40
2015,06,07,15,18,24.40
2015,06,07,15,19,24.40
2015,06,07,15,20,24.40
2015,06,07,15,21,24.40
2015,06,07,15,22,24.50
2015,06,07,15,23,24.50
2015,06,07,15,24,24.50
2015,06,07,15,25,24.40
2015,06,07,15,26,24.40
2015,06,07,15,27,24.30
2015,06,07,15,28,24.30
2015,06,07,15,29,24.30
2015,06,07,15,30,24.20
2015,06,07,15,31,24.20
2015,06,07,15,32,24.30
2015,06,07,15,33,24.30
2015,06,07,15,34,24.30
2015,06,07,15,35,24.30
2015,06,07,15,36,24.30
2015,06,07,15,37,24.30
2015,06,07,15,38,24.40
2015,06,07,15,39,24.40
2015,06,07,15,40,24.40
2015,06,07,15,41,24.40
2015,06,07,15,42,24.40
2015,06,07,15,43,24.40
2015,06,07,15,44,24.30
2015,06,07,15,45,24.30
2015,06,07,15,46,24.30
2015,06,07,15,47,24.30
2015,06,07,15,48,24.30
2015,06,07,15,49,24.30
2015,06,07,15,50,24.30
2015,06,07,15,51,24.30
2015,06,07,15,52,24.30
2015,06,07,15,53,24.30
2015,06,07,15,54,24.30
2015,06,07,15,55,24.30
2015,06,07,15,56,24.30
2015,06,07,15,57,24.30
2015,06,07,15,58,24.30
2015,06,07,15,59,24.40
2015,06,07,16,00,24.50
2015,06,07,16,01,24.50
2015,06,07,16,02,24.50
2015,06,07,16,03,24.60
2015,06,07,16,04,24.60
2015,06,07,16,05,24.50
2015,06,07,16,06,24.50
2015,06,07,16,07,24.40
2015,06,07,16,08,24.40
2015,06,07,16,09,24.50
2015,06,07,16,10,24.50
2015,06,07,16,11,24.50
2015,06,07,16,12,24.60
2015,06,07,16,13,24.60
2015,06,07,16,14,24.60
2015,06,07,16,15,24.70
2015,06,07,16,16,24.70
2015,06,07,16,17,24.80
2015,06,07,16,18,24.80
2015,06,07,16,19,24.80
2015,06,07,16,20,24.80
2015,06,07,16,21,24.70
2015,06,07,16,22,24.60
2015,06,07,16,23,24.50
2015,06,07,16,24,24.50
2015,06,07,16,25,24.40
2015,06,07,16,26,24.40
2015,06,07,16,27,24.50
2015,06,07,16,28,24.60
2015,06,07,16,29,24.70
2015,06,07,16,30,24.70
2015,06,07,16,31,24.80
2015,06,07,16,32,24.90
2015,06,07,16,33,25.10
2015,06,07,16,34,25.30
2015,06,07,16,35,25.40
2015,06,07,16,36,25.60
2015,06,07,16,37,25.70
2015,06,07,16,38,25.80
2015,06,07,16,39,25.90
2015,06,07,16,40,26.00
2015,06,07,16,41,26.10
2015,06,07,16,42,26.30
2015,06,07,16,43,26.40
2015,06,07,16,44,26.60
2015,06,07,16,45,26.70
2015,06,07,16,46,26.80
2015,06,07,16,47,26.90
2015,06,07,16,48,27.00
2015,06,07,16,49,27.10
2015,06,07,16,50,27.10
2015,06,07,16,51,27.20
2015,06,07,16,52,27.20
2015,06,07,16,53,27.20
2015,06,07,16,54,27.20
2015,06,07,16,55,27.20
2015,06,07,16,56,27.10
2015,06,07,16,57,27.00
2015,06,07,16,58,27.00
2015,06,07,16,59,26.90
2015,06,07,17,00,26.70
2015,06,07,17,01,26.50
2015,06,07,17,02,26.30
2015,06,07,17,03,26.10
2015,06,07,17,04,25.90
2015,06,07,17,05,25.90
2015,06,07,17,06,25.90
2015,06,07,17,07,25.90
2015,06,07,17,08,26.00
2015,06,07,17,09,26.10
2015,06,07,17,10,26.10
2015,06,07,17,11,26.20
2015,06,07,17,12,26.20
2015,06,07,17,13,26.10
2015,06,07,17,14,26.00
2015,06,07,17,15,25.90
2015,06,07,17,16,25.80
2015,06,07,17,17,25.70
2015,06,07,17,18,25.70
2015,06,07,17,19,25.70